Regional Weather Roundup
Issued by NWS Mobile, AL

Home | Current Version | Previous Version | Text Only | Print | Product List | Glossary On
Versions: 1 2 3 4 5 6 7 8 9 10 11 12 13 14 15 16 17 18 19 20 21 22 23 24 25 26 27 28 29 30 31 32 33 34 35 36 37 38 39 40 41 42 43 44 45 46 47 48 49 50
000
ASUS44 KMOB 291812
RWRMOB
REGIONAL WEATHER ROUNDUP
NATIONAL WEATHER SERVICE MOBILE AL
100 PM CDT FRI APR 29 2016

NOTE: "FAIR" INDICATES FEW OR NO CLOUDS BELOW 12,000 FEET WITH NO
      SIGNIFICANT WEATHER AND/OR OBSTRUCTIONS TO VISIBILITY.

  * THESE STATIONS ARE PART OF THE UNIVERSITY OF SOUTH ALABAMA
    MESONET AND ARE NOT UNDER NWS OR FAA QUALITY CONTROL.

ALZ061>064-291900-
COASTAL ALABAMA

CITY           SKY/WX    TMP DP  RH WIND       PRES   REMARKS
MOBILE REG APT MOSUNNY   85  68  56 SE15G23   29.95F
6HR MIN TEMP:  67; 6HR MAX TEMP:  85;

BROOKLEY FIELD MOSUNNY   81  73  76 S10       29.96F
6HR MIN TEMP:  69; 6HR MAX TEMP:  82; 6HR PCP: TRACE;

USA CAMPUS*    NOT AVBL
DOG RIVER*     NOT AVBL


CITY           SKY/WX    TMP DP  RH WIND       PRES   REMARKS
MOUNT VERNON*  NOT AVBL
SARALAND*      NOT AVBL
BAY MINETTE*   NOT AVBL
LOXLEY*        NOT AVBL
ROBERTSDALE*   NOT AVBL
FAIRHOPE*      NOT AVBL
ELBERTA*       NOT AVBL
FOLEY*         NOT AVBL
GRAND BAY*     NOT AVBL
DAUPHIN ISLND* NOT AVBL
BON SCOUR NWR* NOT AVBL
GULF SHORES    MOSUNNY   81  71  72 SE10G18   29.96F

$$

ALZ051>060-291900-
INTERIOR SOUTHWEST AND SOUTH CENTRAL ALABAMA

CITY           SKY/WX    TMP DP  RH WIND       PRES   REMARKS
GREENVILLE     MOSUNNY   85  67  54 SE6       29.95F
6HR MIN TEMP:  64; 6HR MAX TEMP:  85;

EVERGREEN      MOSUNNY   86  67  52 S6        29.95F
6HR MIN TEMP:  65; 6HR MAX TEMP:  87;

CASTLEBERRY*   NOT AVBL
ATMORE*        NOT AVBL
DIXIE*         NOT AVBL
ANDALUSIA/OPP  MOSUNNY   90  68  48 VRB5      29.96F
6HR MIN TEMP:  69; 6HR MAX TEMP:  90;

ANDALUSIA*     NOT AVBL
FLORALA APT    MOSUNNY   85  65  51 VRB3      29.97F
6HR MIN TEMP:  66; 6HR MAX TEMP:  86;

FLORALA*       NOT AVBL

$$

FLZ001>006-291900-
WESTERN FLORIDA PANHANDLE

CITY           SKY/WX    TMP DP  RH WIND       PRES   REMARKS
PENSACOLA      SUNNY     84  64  50 SE13      29.97F
6HR MIN TEMP:  70; 6HR MAX TEMP:  84;

NAS PENSACOLA  NOT AVBL
MILTON         MOSUNNY   86  68  54 S9        29.95F
6HR MIN TEMP:  64; 6HR MAX TEMP:  87;

WHTNG S FIELD  MOSUNNY   88  66  48 S8        29.95F
6HR MIN TEMP:  67; 6HR MAX TEMP:  89;



CITY           SKY/WX    TMP DP  RH WIND       PRES   REMARKS
WALNUT HILL*   NOT AVBL
JAY*           NOT AVBL
DUKE FIELD     MOSUNNY   87  61  41 S12       29.94F
CRESTVIEW      MOSUNNY   90  62  39 MISG      29.96F
6HR MIN TEMP:  63; 6HR MAX TEMP:  91;

VALPARAISO     MOSUNNY   82  67  60 S10       29.97F
6HR MIN TEMP:  67; 6HR MAX TEMP:  83;

DESTIN         SUNNY     83  69  62 S7        29.97F
6HR MIN TEMP:  72; 6HR MAX TEMP:  83;


$$

MSZ076-079-291900-
INTERIOR SOUTHEAST MISSISSIPPI

CITY           SKY/WX    TMP DP  RH WIND       PRES   REMARKS
LEAKESVILLE*   NOT AVBL
AGRICOLA*      NOT AVBL

$$

MARINE OBSERVATIONS

STATION/POSITION TIME  TEMP    WIND        PRES    WAVE
                       AIR SEA DIR/SP/G            HT/PER
                 (UTC) (F)     (DEG/KT/KT) (MB)    (FT/S)
PASCAGOULA       1700   77     130/  9/ 13 1014.8S
PETIT BOIS ISLND 1700   78     140/  8/ 11 1015.5S
GRAND BAY        1600   76     140/  9     1017.0R
KATRINA CUT      1700   75     150/ 10       N/A
CEDAR POINT      1700   77     130/  7     1014.9F
E DAUPHIN ISLAND 1700   75     130/ 10/ 10 1014.6F
MIDDLE BAY LIGHT 1700   76     140/  9     1014.6F
USCG MOBILE BAY  1700   78 75  190/ 10/ 12 1015.6F
STATE DOCKS      1700   81 72              1014.9F
MEAHER PARK      1700   75     200/  9     1013.9S
WEEKS BAY        1600   84                   N/A
FORT MORGAN      1700   76     150/ 10/ 13 1014.5F
12 S ORANGE BCH  1750   75 74  130/  6/  8 1013.9F   3/ 6
PENSACOLA BAY    1700   86     160/  5/  7 1015.2F
64 S DAUPHIN ISL 1700   75 74  130/  8/ 10 1014.3F

$$

SELECTED LOCATIONS ACROSS THE REGION

CITY           SKY/WX    TMP DP  RH WIND       PRES   REMARKS
NEW ORLEANS    PTSUNNY   84  72  67 S18       29.89F
GULFPORT       PTSUNNY   80  73  79 S13G20    29.93F
PASCAGOULA AP  SUNNY     83  70  64 SE16      29.94F
PASCAGOULA*    NOT AVBL
HATTIESBURG    CLOUDY    86  68  54 S16G26    29.91F
LAUREL         PTSUNNY   84  70  61 S20       29.92F
MERIDIAN       CLOUDY    85  68  56 S14G21    29.90F
JACKSON        CLOUDY    84  68  58 S17G24    29.89S
MONTGOMERY     SUNNY     86  66  51 SE8       29.95F
TROY           MOSUNNY   85  66  53 S8        29.97F
KINSTON*       NOT AVBL
GENEVA*        NOT AVBL
ASHFORD*       NOT AVBL
DOTHAN         PTSUNNY   86  65  49 CALM      30.00F
PANAMA CITY    SUNNY     87  68  52 S9        29.95F

$$




USA.gov is the U.S. government's official web portal to all federal, state and local government web resources and services.